User: anonymous   Login
Location: Newark
(41.8083°N, 72.2500°W)
Time: 08:09:23
(UTC+00:00)
Language:

Tiros 1 despin weight - Orbit

View from above orbital plane
View from above orbital plane
View from above satellite
View from above satellite

Ground track
Ground track

The orbit data is extracted from the following two-line orbital elements,

1   115U 60002D   21337.01238198  .00000325  00000-0  65344-4 0  9999
2   115  48.1657 227.9996 0034064  80.4968 279.9792 14.83918580292203
Epoch (UTC): 03 December 2021 00:17:49
Eccentricity: 0.0034064
inclination: 48.1657°
perigee height: 593 km
apogee height: 641 km
right ascension of ascending node: 227.9996°
argument of perigee: 80.4968°
revolutions per day: 14.83918580
mean anomaly at epoch: 279.9792°
orbit number at epoch: 29220

The dashed part of the orbit path shows where the satellite is in the earth's shadow,  

DLR